Regional Weather Roundup
Issued by NWS

Home | Current Version | Previous Version | Text Only | Print | Product List | Glossary On
Versions: 1 2 3 4 5 6 7 8 9 10 11 12 13 14 15 16 17 18 19 20 21 22 23 24 25 26 27 28 29 30 31 32 33 34 35 36 37 38 39 40 41 42 43 44 45 46 47 48 49 50
000
ASHW40 PHFO 252043
RWRHI

WEATHER ROUNDUP FOR HAWAII
NATIONAL WEATHER SERVICE HONOLULU HI
1000 AM HST TUE APR 25 2017

THIS IS AN AUTOMATED REPORT THAT HAS NOT BEEN QUALITY CONTROLLED.

NOTE..."FAIR" INDICATES FEW OR NO CLOUDS BELOW 12,000 FEET WITH NO
SIGNIFICANT WEATHER AND/OR OBSTRUCTIONS TO VISIBILITY.

* - THESE SITES REPORT LIMITED FIELDS

HIZ001>004-252100-
KAUAI-NIIHAU-

CITY           SKY/WX    TMP DP  RH WIND       PRES   REMARKS
LIHUE APT      MOSUNNY   82  68  62 NE14      30.15R
PORT ALLEN*      N/A     82 N/A N/A E17G24      N/A
POIPU*           N/A     81 N/A N/A NE9G20      N/A
PRINCEVILLE*     N/A     77 N/A N/A E8G16       N/A
KOKOLE POINT*  NOT AVBL
MOLOAA DAIRY*    N/A     79  68  69 E9G16       N/A
WAIMEA HTS*      N/A     88  59  37 E12G20      N/A
PUU OPAE*      NOT AVBL
PUU LUA*       NOT AVBL
MAKAHA RIDGE*    N/A     75  64  69 W2          N/A
$$

HIZ005>011-252100-
OAHU-

CITY           SKY/WX    TMP DP  RH WIND       PRES   REMARKS
HONOLULU       MOSUNNY   82  63  52 NE15      30.11R
KALAELOA       MOSUNNY   86  63  45 E9G18     30.12R
KANEOHE MCB    PTSUNNY   81  70  69 E12G18    30.10R
WHEELER FIELD  MOSUNNY   79  64  60 E12G20    30.13R
BELLOWS*         N/A    N/A N/A N/A NE18        N/A
KAHUKU*          N/A    N/A N/A N/A NE9G20      N/A
WHEELER*         N/A    N/A N/A N/A NE10G18     N/A
WAIANAE HARBOR   N/A    N/A N/A N/A NE7G17      N/A
DILLINGHAM*      N/A     91  75  59 SW7G13      N/A  HX 102
KAHUKU TRN*      N/A    N/A N/A N/A W9G20       N/A
KAWAILOA*        N/A     75  64  69 E9G17       N/A
KII*             N/A     79  68  69 E17         N/A
MAKUA RANGE*     N/A     68  50  52 W5G15       N/A
OAHU FOREST NW   N/A     72  63  73 E15G26      N/A
SCHOFIELD BRK*   N/A     79  64  61 MISG        N/A
SCHOFIELD S*   NOT AVBL
WAIANAE VLY*     N/A     68  48  49 E6G15       N/A
KUAOKALA*        N/A     75  66  73 NE18G30     N/A
HONOULIUULI*   NOT AVBL
MOKUOLOE IS*   NOT AVBL
PALEHUA*         N/A     73  63  68 NE8G21      N/A
WAIAWA PHB*    NOT AVBL
$$

HIZ012>013-252100-
MOLOKAI-

CITY           SKY/WX    TMP DP  RH WIND       PRES   REMARKS
MOLOKAI AIRPT  LGT RAIN  68  67  96 NE18G31   30.13R
KALAUPAPA      NOT AVBL
MAKAPULAPAI*     N/A     73  68  83 E14G30      N/A
MOLOKAI 1*       N/A     70 N/A N/A NW3         N/A
PUU ALII*        N/A     60  60 100 VRB3G16     N/A
$$

HIZ016-252100-
KAHOOLAWE-

CITY           SKY/WX    TMP DP  RH WIND       PRES   REMARKS
KAHOOLAWE*     NOT AVBL
HAKIOAWA*        N/A     78  67  68 MISG      30.52S
HONOKANAIA*      N/A     83  63  50 VRB12G18  30.03S
KANELOA*         N/A     75  63  64 NE13G25   30.16R
KEALIALALO*    NOT AVBL
LUA MAKIKA*    NOT AVBL
$$

HIZ014>015-252100-
LANAI-

CITY           SKY/WX    TMP DP  RH WIND       PRES   REMARKS
LANAI CITY     CLOUDY    73  66  78 NE16      30.15S
LANAI 1*       NOT AVBL
$$

HIZ017>028-252100-
MAUI-

CITY           SKY/WX    TMP DP  RH WIND       PRES   REMARKS
KAHULUI        MOSUNNY   80  66  62 NE21G28   30.11S
KAPALUA-W MAUI NOT AVBL
HANA AIRPORT   NOT AVBL
HANA*            N/A     75 N/A N/A NE10G16     N/A
HALEAKALA SUMM   N/A     45  43  93 E33G51      N/A
MAALAEA BAY*     N/A     81 N/A N/A N18G31      N/A
HALEAKALA*     NOT AVBL
KAUPO GAP*     NOT AVBL
KULA 1*        NOT AVBL
$$

HIZ023>026-252100-
BIG ISLAND OF HAWAII COAST AND LOWER SLOPES-

CITY           SKY/WX    TMP DP  RH WIND       PRES   REMARKS
KAILUA KONA    SUNNY     82  64  54 W9        30.07R
HILO           PTSUNNY   80  63  55 S9        30.14R
HONOKAA*         N/A     77 N/A N/A VRB1        N/A
KAWAIHAE MWT*    N/A     84 N/A N/A SE13G30     N/A
KAWAIHAE*        N/A     79 N/A N/A SW13      30.06R
SOUTH POINT*     N/A     79 N/A N/A N24G36      N/A
UPOLU AIRPORT* NOT AVBL
KAMUELA*       CLEAR     75  61  60 N15       30.17F
HAKALAU*         N/A     56  53  88 S6G12       N/A
KALOKO-HONOKO* NOT AVBL
PALI 2*          N/A     73  52  46 SW13G20     N/A
KEALAKOMO*       N/A     84  61  45 NE15G24     N/A
KAUPULEHU*       N/A     82  59  44 W12G18      N/A
KAPAPALA*        N/A     81  51  34 E10G20      N/A
LOWER KAHUKU*    N/A     70  54  56 E5G17       N/A
PUHE CS*         N/A     84  63  48 E12G24      N/A
PUHO CS*         N/A     85  64  49 SW3         N/A
PTA KEAMUKU*     N/A     72  52  49 CALM        N/A
WAIKOLOA*        N/A     82  59  44 SW12G20     N/A
$$

HIZ027>028-252100-
BIG ISLAND OF HAWAII INTERIOR AND SUMMMITS-

CITY           SKY/WX    TMP DP  RH WIND       PRES   REMARKS
BRADSHAW FIELD MOSUNNY   60  46  61 S21G31    30.36R
MK VISITOR CEN   N/A     57   0   9 E10         N/A
MAUNA KEA*       N/A     45 -17   7 E17         N/A
MAUNA LOA*       N/A     55 -24   3 MISG        N/A
MAUNA LOA 1*   NOT AVBL
PTA KIPUKA*      N/A    N/A N/A N/A E14G30      N/A
PTA RANGE 17*    N/A     63  45  51 E26G41      N/A
PTA WEST*        N/A    N/A N/A N/A NW9G16      N/A
NENE CABIN*      N/A     55  39  54 E12G23      N/A
AHUMOA*          N/A     63  48  58 W5G12       N/A
PTA PORTABLE*  NOT AVBL
PUU MALI*        N/A     63  48  59 W13G35      N/A
$$

HIC003-252100-
NORTHWEST ISLANDS-

CITY           SKY/WX    TMP DP  RH WIND       PRES   REMARKS
MIDWAY ISLAND    N/A     73  70  88 W13       29.99R
MIDWAY NOS*      N/A     72 N/A N/A MISG      29.98R
FRENCH FRIGATE NOT AVBL
$$

PHZ110>124-180-252100-
BUOY REPORTS

STATION/POSITION TIME  TEMP    WIND        PRES    WAVE   SWELL
                       AIR SEA DIR/SP/G            HT/PER HT/DIR
                 (UTC) (F)     (DEG/KT/KT) (MB)    (FT/S) (FT/D)
BUOY 51001       2030   75 76  120/ 12/ 16 1020.8R
BUOY 51101       1950   76 76  110/ 12/ 14 1021.0R   6/12   5/280
BUOY 51100       NOT AVBL
BUOY 51002       2030   78 79   60/ 17/ 21 1017.3F
BUOY 51003       1950   76 79   60/ 12/ 16 1018.6R   7/10   7/110
BUOY 51004       1950      78   80/ 17/ 21 1018.5R   7/ 8   5/ 90
BARBERS PT BUOY  NOT AVBL
WAIMEA BAY BUOY  2002      77                N/A     4/13   2/330
KAILUA BAY BUOY  2004      78                N/A     5/ 9   2/ 40
LANAI BUOY       2015      78                N/A     3/13   2/200
BARBERS PT 2     NOT AVBL
PAUWELA MAUI     2009      77                N/A     6/ 9   2/330
HILO             2012      78                N/A     6/ 9   2/110
KANEOHE BAY BUOY 2025      78                N/A     4/ 9
HANALEI KAUAI    2022      77                N/A     4/ 8   2/320
KAHULUI HARBOR   2012   76 79   40/ 13/ 18 1019.8
HONOLULU HARBOR  2012   80 79   50/  9/ 14 1020.3
KILO NALU        NOT AVBL
HILO HARBOR      2012   85 76  150/  5/  9 1020.0
MOKUOLOE         1936   79 79   90/ 12/ 16 1020.1R
NAWILIWILI       2012   78 79   60/ 10/ 13 1020.4
WHOTS BUOY       NOT AVBL
BUOY 51028       NOT AVBL
$$

......................KEY........................................
  SKY/WX - SKY CONDITIONS/PRESENT WEATHER
  TMP    - TEMPERATURE IN FAHRENHEIT
  DWPT   - DEWPOINT IN FAHRENHEIT
  RH     - RELATIVE HUMIDITY IN PERCENT
  WIND   - DIRECTION AND SPEED /MPH FOR ISLANDS...KTS FOR BUOYS/
  PRES   - MEAN SEA LEVEL PRESSURE IN INCHES OF HG
  VSB    - VISIBILITY IN MILES
  HX     - HEAT INDEX
  WCI    - WIND CHILL INDEX
  VRB    - VARIABLE WIND DIRECTION
  N/A    - NOT AVAILABLE




USA.gov is the U.S. government's official web portal to all federal, state and local government web resources and services.